�N����,�����b,���ԉ��x,�t���O,���Ԏ��x,�t���O,��󒲎�,�t���O,�����W,�t���O
2005/3/1,0:00:00,21.8,0,51.8,0,14.4,0,22.3,0
2005/3/1,0:15:00,21.7,0,52,0,14.4,0,22.2,0
2005/3/1,0:30:00,21.5,0,52.4,0,14.4,0,22.1,0
2005/3/1,0:45:00,21.4,0,52.6,0,14.4,0,22,0
2005/3/1,1:00:00,21.3,0,53,0,14.5,0,22,0
2005/3/1,1:15:00,21.2,0,53.4,0,14.5,0,21.9,0
2005/3/1,1:30:00,21.1,0,53.3,0,14.5,0,21.9,0
2005/3/1,1:45:00,21,0,53.5,0,14.5,0,21.9,0
2005/3/1,2:00:00,20.9,0,54,0,14.6,0,21.9,0
2005/3/1,2:15:00,20.9,0,54.7,0,14.6,0,21.9,0
2005/3/1,2:30:00,20.8,0,55,0,14.6,0,21.8,0
2005/3/1,2:45:00,20.7,0,55.1,0,14.6,0,21.7,0
2005/3/1,3:00:00,20.7,0,55.2,0,14.7,0,21.7,0
2005/3/1,3:15:00,20.6,0,55.1,0,14.7,0,21.7,0
2005/3/1,3:30:00,20.5,0,55.2,0,14.7,0,21.7,0
2005/3/1,3:45:00,20.4,0,55.2,0,14.7,0,21.7,0
2005/3/1,4:00:00,20.4,0,55.5,0,14.7,0,21.6,0
2005/3/1,4:15:00,20.3,0,55.3,0,14.7,0,21.6,0
2005/3/1,4:30:00,20.2,0,55.1,0,14.7,0,21.5,0
2005/3/1,4:45:00,20.3,0,54.3,0,14.7,0,21.4,0
2005/3/1,5:00:00,20.2,0,54.5,0,14.7,0,21.4,0
2005/3/1,5:15:00,20.1,0,55.3,0,14.7,0,21.4,0
2005/3/1,5:30:00,20.1,0,55.3,0,14.7,0,21.4,0
2005/3/1,5:45:00,20.1,0,54.8,0,14.8,0,21.3,0
2005/3/1,6:00:00,20,0,55.2,0,14.8,0,21.3,0
2005/3/1,6:15:00,19.9,0,55.1,0,14.8,0,21.2,0
2005/3/1,6:30:00,20,0,54.4,0,14.8,0,21.2,0
2005/3/1,6:45:00,19.9,0,53.9,0,15.5,0,24,0
2005/3/1,7:00:00,20,0,53.6,0,16.4,0,23.2,0
2005/3/1,7:15:00,20.2,0,53.4,0,17,0,22.6,0
2005/3/1,7:30:00,20.5,0,53.4,0,17.5,0,22.2,0
2005/3/1,7:45:00,20.8,0,52.9,0,17.7,0,22.5,0
2005/3/1,8:00:00,20.8,0,49.7,0,17.7,0,22.6,0
2005/3/1,8:15:00,20.9,0,47.9,0,17.4,0,22.2,0
2005/3/1,8:30:00,20.7,0,49,0,17.1,0,22,0
2005/3/1,8:45:00,20.9,0,48.7,0,17,0,21.9,0
2005/3/1,9:00:00,20.6,0,50,0,16.9,0,22,0
2005/3/1,9:15:00,20.6,0,50.4,0,16.9,0,21.9,0
2005/3/1,9:30:00,20.5,0,50.7,0,17,0,21.9,0
2005/3/1,9:45:00,20.5,0,50.9,0,16.9,0,21.9,0
2005/3/1,10:00:00,20.5,0,51,0,16.8,0,21.8,0
2005/3/1,10:15:00,20.4,0,51,0,16.8,0,21.8,0
2005/3/1,10:30:00,20.4,0,51,0,16.8,0,21.8,0
2005/3/1,10:45:00,20.4,0,50.9,0,16.8,0,21.8,0
2005/3/1,11:00:00,20.3,0,50.8,0,16.8,0,21.8,0
2005/3/1,11:15:00,20.3,0,51,0,16.7,0,21.8,0
2005/3/1,11:30:00,20.3,0,51.2,0,16.6,0,21.8,0
2005/3/1,11:45:00,20.3,0,51.3,0,16.5,0,21.8,0
2005/3/1,12:00:00,20.2,0,51.4,0,16.4,0,21.7,0
2005/3/1,12:15:00,20.4,0,51.5,0,16.4,0,21.7,0
2005/3/1,12:30:00,20.2,0,51.7,0,16.3,0,21.7,0
2005/3/1,12:45:00,20.2,0,51.8,0,16.2,0,21.7,0
2005/3/1,13:00:00,20.2,0,51.8,0,16.1,0,21.8,0
2005/3/1,13:15:00,20.2,0,52.1,0,15.9,0,21.9,0
2005/3/1,13:30:00,20.2,0,52.2,0,15.8,0,22,0
2005/3/1,13:45:00,20.2,0,52.2,0,15.7,0,22,0
2005/3/1,14:00:00,20.2,0,52.2,0,15.6,0,22,0
2005/3/1,14:15:00,20.2,0,52.2,0,15.5,0,21.9,0
2005/3/1,14:30:00,20.2,0,52.6,0,15.4,0,21.9,0
2005/3/1,14:45:00,20.2,0,52.5,0,15.3,0,21.8,0
2005/3/1,15:00:00,20.2,0,52.5,0,15.2,0,21.8,0
2005/3/1,15:15:00,20.2,0,52.5,0,15.1,0,21.7,0
2005/3/1,15:30:00,20.2,0,52.5,0,15,0,21.7,0
2005/3/1,15:45:00,20.2,0,52.6,0,14.9,0,21.6,0
2005/3/1,16:00:00,20.2,0,52.5,0,14.8,0,21.6,0
2005/3/1,16:15:00,20.1,0,52.6,0,14.7,0,21.6,0
2005/3/1,16:30:00,20.1,0,52.6,0,14.6,0,21.5,0
2005/3/1,16:45:00,20.1,0,52.7,0,14.5,0,21.5,0
2005/3/1,17:00:00,20.2,0,52.7,0,14.5,0,21.5,0
2005/3/1,17:15:00,20.1,0,52.7,0,14.4,0,21.5,0
2005/3/1,17:30:00,20,0,52.7,0,14.3,0,21.4,0
2005/3/1,17:45:00,20.1,0,52.5,0,14.2,0,21.4,0
2005/3/1,18:00:00,19.9,0,52.5,0,14.1,0,21.4,0
2005/3/1,18:15:00,19.9,0,52.5,0,14.1,0,21.3,0
2005/3/1,18:30:00,20.1,0,52.4,0,14,0,21.3,0
2005/3/1,18:45:00,19.9,0,52.3,0,13.9,0,21.3,0
2005/3/1,19:00:00,19.9,0,52.2,0,13.8,0,21.3,0
2005/3/1,19:15:00,19.9,0,52.3,0,13.7,0,21.3,0
2005/3/1,19:30:00,19.8,0,53.2,0,13.7,0,21.3,0
2005/3/1,19:45:00,19.8,0,53.8,0,13.7,0,21.4,0
2005/3/1,20:00:00,19.9,0,54.1,0,13.7,0,21.4,0
2005/3/1,20:15:00,20,0,55.2,0,13.7,0,22,0
2005/3/1,20:30:00,20.1,0,56.1,0,13.7,0,22.9,0
2005/3/1,20:45:00,20.4,0,58.2,0,13.7,0,23.2,0
2005/3/1,21:00:00,20.6,0,57.8,0,13.6,0,23.1,0
2005/3/1,21:15:00,20.7,0,56.9,0,13.6,0,24,0
2005/3/1,21:30:00,20.9,0,56,0,13.6,0,23.2,0
2005/3/1,21:45:00,20.9,0,55.6,0,13.6,0,22.7,0
2005/3/1,22:00:00,21,0,54.7,0,13.5,0,22.4,0
2005/3/1,22:15:00,21.1,0,53.9,0,13.8,0,22.3,0
2005/3/1,22:30:00,21.1,0,53.3,0,14.4,0,22.3,0
2005/3/1,22:45:00,21.1,0,53.4,0,14.8,0,22.1,0
2005/3/1,23:00:00,21,0,53,0,14.6,0,21.8,0
2005/3/1,23:15:00,20.9,0,52.9,0,14.5,0,21.7,0
2005/3/1,23:30:00,20.8,0,53,0,14.3,0,21.5,0
2005/3/1,23:45:00,20.8,0,52.8,0,14.2,0,21.4,0
2005/3/2,0:00:00,20.7,0,52.8,0,14.1,0,23.4,0
2005/3/2,0:15:00,20.6,0,53.1,0,14,0,26.1,0
2005/3/2,0:30:00,20.5,0,53.5,0,14,0,27.7,0
2005/3/2,0:45:00,20.4,0,53.8,0,13.9,0,26.3,0
2005/3/2,1:00:00,20.4,0,53.8,0,13.9,0,24.2,0
2005/3/2,1:15:00,20.4,0,53.8,0,13.8,0,23,0
2005/3/2,1:30:00,20.3,0,53.7,0,13.8,0,22.3,0
2005/3/2,1:45:00,20.2,0,54.2,0,13.8,0,21.9,0
2005/3/2,2:00:00,20.2,0,54.3,0,13.8,0,21.6,0
2005/3/2,2:15:00,20.1,0,54.5,0,13.8,0,21.4,0
2005/3/2,2:30:00,20.1,0,54.6,0,13.7,0,21.3,0
2005/3/2,2:45:00,20.1,0,54.1,0,13.7,0,21.2,0
2005/3/2,3:00:00,20,0,54.5,0,13.7,0,21.1,0
2005/3/2,3:15:00,20,0,54.2,0,13.7,0,21.1,0
2005/3/2,3:30:00,20.1,0,53.6,0,13.7,0,21,0
2005/3/2,3:45:00,19.9,0,53.8,0,13.7,0,21,0
2005/3/2,4:00:00,19.9,0,53.9,0,13.7,0,21,0
2005/3/2,4:15:00,19.9,0,53.6,0,13.7,0,20.9,0
2005/3/2,4:30:00,19.8,0,53.8,0,13.7,0,20.9,0
2005/3/2,4:45:00,19.8,0,53.8,0,13.7,0,20.9,0
2005/3/2,5:00:00,19.8,0,53.7,0,13.7,0,20.9,0
2005/3/2,5:15:00,19.8,0,53.5,0,13.7,0,20.9,0
2005/3/2,5:30:00,19.7,0,53.7,0,13.7,0,20.9,0
2005/3/2,5:45:00,19.7,0,53.7,0,13.7,0,20.9,0
2005/3/2,6:00:00,19.8,0,53.7,0,13.7,0,21,0
2005/3/2,6:15:00,19.7,0,53.7,0,13.7,0,21,0
2005/3/2,6:30:00,19.7,0,53.5,0,13.7,0,21,0
2005/3/2,6:45:00,19.7,0,53.5,0,14.4,0,21.4,0
2005/3/2,7:00:00,19.9,0,53.1,0,15.5,0,22,0
2005/3/2,7:15:00,19.9,0,53.1,0,16.3,0,22.2,0
2005/3/2,7:30:00,20,0,53.9,0,16.9,0,22.6,0
2005/3/2,7:45:00,20.1,0,54.4,0,17.3,0,22.6,0
2005/3/2,8:00:00,20.2,0,55.6,0,17.8,0,22.5,0
2005/3/2,8:15:00,20.3,0,55.1,0,17.7,0,22.5,0
2005/3/2,8:30:00,20.5,0,54.2,0,17.6,0,22.4,0
2005/3/2,8:45:00,20.5,0,54.4,0,17.3,0,22.5,0
2005/3/2,9:00:00,20.7,0,53.9,0,17.1,0,22.7,0
2005/3/2,9:15:00,20.7,0,54.1,0,16.9,0,22.7,0
2005/3/2,9:30:00,20.8,0,53.8,0,16.7,0,22.6,0
2005/3/2,9:45:00,20.8,0,53.7,0,15.9,0,22.5,0
2005/3/2,10:00:00,20.7,0,53.7,0,15.8,0,22.4,0
2005/3/2,10:15:00,20.7,0,53,0,15.7,0,22.5,0
2005/3/2,10:30:00,20.6,0,52.7,0,15.7,0,22.7,0
2005/3/2,10:45:00,20.6,0,52.4,0,15.7,0,22.5,0
2005/3/2,11:00:00,20.5,0,52.5,0,15.6,0,22.3,0
2005/3/2,11:15:00,20.5,0,52.6,0,15.5,0,22.2,0
2005/3/2,11:30:00,20.4,0,52.5,0,15.4,0,22,0
2005/3/2,11:45:00,20.3,0,52.5,0,15.3,0,21.9,0
2005/3/2,12:00:00,20.3,0,52.2,0,15.2,0,21.8,0
2005/3/2,12:15:00,20.2,0,52.2,0,15.1,0,21.6,0
2005/3/2,12:30:00,20.1,0,52.2,0,15,0,21.6,0
2005/3/2,12:45:00,20.1,0,52,0,14.9,0,21.5,0
2005/3/2,13:00:00,20,0,52.2,0,14.8,0,21.5,0
2005/3/2,13:15:00,19.9,0,52,0,14.7,0,21.4,0
2005/3/2,13:30:00,19.9,0,52.1,0,14.6,0,21.4,0
2005/3/2,13:45:00,19.9,0,52.1,0,14.5,0,21.4,0
2005/3/2,14:00:00,19.8,0,52.2,0,14.4,0,21.3,0
2005/3/2,14:15:00,19.8,0,52.2,0,14.3,0,21.3,0
2005/3/2,14:30:00,19.7,0,52.5,0,14.2,0,21.2,0
2005/3/2,14:45:00,19.6,0,52.4,0,14.1,0,21.1,0
2005/3/2,15:00:00,19.6,0,52.2,0,14.1,0,21.4,0
2005/3/2,15:15:00,19.6,0,52.3,0,14,0,21.7,0
2005/3/2,15:30:00,19.6,0,52.4,0,13.9,0,21.8,0
2005/3/2,15:45:00,19.6,0,52.4,0,13.8,0,21.6,0
2005/3/2,16:00:00,19.6,0,52.2,0,13.7,0,21.4,0
2005/3/2,16:15:00,19.5,0,52.6,0,13.6,0,21.2,0
2005/3/2,16:30:00,19.4,0,52.7,0,13.6,0,21,0
2005/3/2,16:45:00,19.4,0,52.2,0,13.5,0,21,0
2005/3/2,17:00:00,19.4,0,52,0,13.4,0,21.1,0
2005/3/2,17:15:00,19.4,0,52.1,0,13.3,0,21.1,0
2005/3/2,17:30:00,19.3,0,52.5,0,13.3,0,21,0
2005/3/2,17:45:00,19.3,0,52.1,0,13.2,0,21,0
2005/3/2,18:00:00,19.2,0,52.1,0,13.1,0,21.1,0
2005/3/2,18:15:00,19.4,0,52.4,0,13,0,21.2,0
2005/3/2,18:30:00,19.5,0,52.3,0,13,0,21.4,0
2005/3/2,18:45:00,19.6,0,52.2,0,12.9,0,21.8,0
2005/3/2,19:00:00,19.7,0,52.8,0,12.9,0,21.9,0
2005/3/2,19:15:00,19.8,0,52.5,0,12.8,0,21.9,0
2005/3/2,19:30:00,19.9,0,52.8,0,12.8,0,22.1,0
2005/3/2,19:45:00,20.1,0,53.3,0,12.8,0,22.7,0
2005/3/2,20:00:00,20.3,0,53.5,0,12.8,0,24.4,0
2005/3/2,20:15:00,20.6,0,54,0,12.8,0,25.7,0
2005/3/2,20:30:00,20.8,0,53.9,0,12.8,0,24.6,0
2005/3/2,20:45:00,21,0,53.5,0,12.9,0,24,0
2005/3/2,21:00:00,21,0,53.2,0,12.8,0,23.4,0
2005/3/2,21:15:00,21.3,0,52.6,0,12.8,0,23.1,0
2005/3/2,21:30:00,21.4,0,52.1,0,12.8,0,23.1,0
2005/3/2,21:45:00,21.5,0,52.8,0,12.7,0,23,0
2005/3/2,22:00:00,21.6,0,51.5,0,12.7,0,22.7,0
2005/3/2,22:15:00,21.8,0,51.2,0,12.6,0,23,0
2005/3/2,22:30:00,21.8,0,50.6,0,12.6,0,23,0
2005/3/2,22:45:00,22,0,50.3,0,12.6,0,22.9,0
2005/3/2,23:00:00,22,0,50.5,0,12.5,0,22.7,0
2005/3/2,23:15:00,22,0,50,0,12.5,0,22.8,0
2005/3/2,23:30:00,22.1,0,49.7,0,12.4,0,23,0
2005/3/2,23:45:00,22.1,0,49.8,0,12.4,0,22.7,0
2005/3/3,0:00:00,22.1,0,49.6,0,12.4,0,22.8,0
2005/3/3,0:15:00,22,0,49.6,0,12.4,0,23,0
2005/3/3,0:30:00,22,0,49.8,0,12.4,0,22.8,0
2005/3/3,0:45:00,21.9,0,49.5,0,12.4,0,22.6,0
2005/3/3,1:00:00,21.9,0,49.4,0,12.4,0,22.7,0
2005/3/3,1:15:00,22,0,49.3,0,12.4,0,22.9,0
2005/3/3,1:30:00,21.9,0,49.5,0,12.4,0,22.7,0
2005/3/3,1:45:00,21.7,0,50.4,0,12.4,0,22.6,0
2005/3/3,2:00:00,21.7,0,50.1,0,12.4,0,22.8,0
2005/3/3,2:15:00,21.5,0,51.2,0,12.4,0,22.8,0
2005/3/3,2:30:00,21.4,0,51.6,0,12.4,0,22.6,0
2005/3/3,2:45:00,21.3,0,51.6,0,12.5,0,22.6,0
2005/3/3,3:00:00,21.3,0,51.7,0,12.5,0,22.6,0
2005/3/3,3:15:00,21.2,0,52.5,0,12.5,0,22.6,0
2005/3/3,3:30:00,21.1,0,52.3,0,12.5,0,22.4,0
2005/3/3,3:45:00,21,0,52.5,0,12.6,0,22.5,0
2005/3/3,4:00:00,21,0,52.5,0,12.6,0,22.5,0
2005/3/3,4:15:00,20.9,0,54,0,12.6,0,22.4,0
2005/3/3,4:30:00,20.8,0,52.9,0,12.7,0,22.3,0
2005/3/3,4:45:00,20.8,0,52.6,0,12.7,0,22.4,0
2005/3/3,5:00:00,20.7,0,52.6,0,12.7,0,22.4,0
2005/3/3,5:15:00,20.6,0,53.3,0,12.7,0,22.2,0
2005/3/3,5:30:00,20.6,0,52.4,0,12.8,0,22.2,0
2005/3/3,5:45:00,20.6,0,52.2,0,12.8,0,22.2,0
2005/3/3,6:00:00,20.6,0,52.4,0,12.9,0,22.3,0
2005/3/3,6:15:00,20.6,0,52.3,0,12.9,0,22.4,0
2005/3/3,6:30:00,20.5,0,52.1,0,13,0,22.3,0
2005/3/3,6:45:00,20.5,0,52.1,0,13,0,24.6,0
2005/3/3,7:00:00,20.5,0,52.3,0,13.1,0,25.3,0
2005/3/3,7:15:00,20.5,0,52.5,0,14.1,0,24.4,0
2005/3/3,7:30:00,20.5,0,52.5,0,14.9,0,23.6,0
2005/3/3,7:45:00,20.5,0,52.6,0,15.7,0,23.3,0
2005/3/3,8:00:00,20.5,0,52.7,0,16.5,0,23.1,0
2005/3/3,8:15:00,20.5,0,52.6,0,16.7,0,22.9,0
2005/3/3,8:30:00,20.5,0,53.3,0,16.4,0,22.6,0
2005/3/3,8:45:00,20.5,0,53.7,0,16.1,0,22.7,0
2005/3/3,9:00:00,20.6,0,54.3,0,15.9,0,22.9,0
2005/3/3,9:15:00,20.6,0,54.6,0,15.8,0,22.7,0
2005/3/3,9:30:00,20.6,0,53.7,0,15.6,0,22.6,0
2005/3/3,9:45:00,20.6,0,53.4,0,15.5,0,22.7,0
2005/3/3,10:00:00,20.7,0,53.6,0,15.4,0,22.7,0
2005/3/3,10:15:00,20.9,0,53.5,0,15.3,0,22.6,0
2005/3/3,10:30:00,20.9,0,53.5,0,15.2,0,22.8,0
2005/3/3,10:45:00,21,0,53.7,0,15.2,0,23.1,0
2005/3/3,11:00:00,21,0,54.4,0,15.2,0,23,0
2005/3/3,11:15:00,21.2,0,53.7,0,15.2,0,23.1,0
2005/3/3,11:30:00,21.3,0,53.5,0,15.2,0,23.2,0
2005/3/3,11:45:00,21.3,0,53.5,0,15.2,0,23.4,0
2005/3/3,12:00:00,21.5,0,53.6,0,15.1,0,23.5,0
2005/3/3,12:15:00,21.5,0,53.7,0,15.1,0,23.5,0
2005/3/3,12:30:00,21.6,0,54.2,0,15.1,0,24,0
2005/3/3,12:45:00,21.7,0,54.8,0,15.1,0,24.1,0
2005/3/3,13:00:00,21.9,0,54.6,0,15,0,24.2,0
2005/3/3,13:15:00,22.1,0,54,0,15,0,24.4,0
2005/3/3,13:30:00,22.2,0,53.7,0,15,0,24.3,0
2005/3/3,13:45:00,22.2,0,54,0,15,0,24.1,0
2005/3/3,14:00:00,22.3,0,53.5,0,14.9,0,23.8,0
2005/3/3,14:15:00,22.2,0,53.4,0,14.9,0,23.6,0
2005/3/3,14:30:00,22.2,0,53.4,0,14.9,0,23.5,0
2005/3/3,14:45:00,22.3,0,53,0,14.9,0,23.3,0
2005/3/3,15:00:00,22.1,0,53.8,0,14.8,0,23.2,0
2005/3/3,15:15:00,22.2,0,52.9,0,14.8,0,23.1,0
2005/3/3,15:30:00,22.2,0,53.1,0,14.7,0,23.1,0
2005/3/3,15:45:00,22.1,0,53.1,0,14.7,0,23,0
2005/3/3,16:00:00,22.2,0,52.6,0,14.7,0,22.9,0
2005/3/3,16:15:00,22,0,53.3,0,14.6,0,22.9,0
2005/3/3,16:30:00,22.1,0,52.8,0,14.6,0,22.8,0
2005/3/3,16:45:00,22.1,0,53,0,14.5,0,22.7,0
2005/3/3,17:00:00,22.1,0,53.6,0,14.4,0,22.6,0
2005/3/3,17:15:00,22.3,0,52.5,0,14.4,0,22.6,0
2005/3/3,17:30:00,22.3,0,53,0,14.3,0,22.6,0
2005/3/3,17:45:00,22.4,0,52.2,0,14.3,0,22.6,0
2005/3/3,18:00:00,22.4,0,52.1,0,14.2,0,22.4,0
2005/3/3,18:15:00,22.5,0,52.4,0,14.1,0,22.4,0
2005/3/3,18:30:00,22.5,0,51.4,0,14.1,0,22.3,0
2005/3/3,18:45:00,22.5,0,51,0,14,0,22.2,0
2005/3/3,19:00:00,22.4,0,51.5,0,14,0,22.2,0
2005/3/3,19:15:00,22.4,0,51.2,0,13.9,0,24.7,0
2005/3/3,19:30:00,22.3,0,51.9,0,13.8,0,27.5,0
2005/3/3,19:45:00,22.5,0,52.3,0,13.8,0,28.7,0
2005/3/3,20:00:00,22.4,0,52.6,0,13.8,0,29.4,0
2005/3/3,20:15:00,22.5,0,52.3,0,13.8,0,29.8,0
2005/3/3,20:30:00,22.5,0,52.9,0,13.7,0,28.2,0
2005/3/3,20:45:00,22.6,0,52.9,0,13.7,0,25.9,0
2005/3/3,21:00:00,22.7,0,52.6,0,13.6,0,24.6,0
2005/3/3,21:15:00,22.7,0,52.9,0,13.6,0,23.9,0
2005/3/3,21:30:00,22.8,0,51.7,0,13.6,0,23.5,0
2005/3/3,21:45:00,22.9,0,51.5,0,13.5,0,23,0
2005/3/3,22:00:00,22.9,0,51.4,0,13.6,0,22.7,0
2005/3/3,22:15:00,22.8,0,51.1,0,14,0,22.4,0
2005/3/3,22:30:00,22.9,0,50.7,0,14.1,0,22.5,0
2005/3/3,22:45:00,22.9,0,50.7,0,14,0,22.6,0
2005/3/3,23:00:00,22.9,0,50.7,0,14,0,22.5,0
2005/3/3,23:15:00,22.9,0,50.5,0,14.1,0,22.5,0
2005/3/3,23:30:00,22.8,0,50.8,0,14,0,22.4,0
2005/3/3,23:45:00,22.8,0,50.3,0,13.9,0,22.4,0
2005/3/4,0:00:00,22.6,0,50.8,0,13.9,0,22.4,0
2005/3/4,0:15:00,22.6,0,50.4,0,13.8,0,22.3,0
2005/3/4,0:30:00,22.5,0,50.3,0,13.8,0,22.3,0
2005/3/4,0:45:00,22.4,0,50.5,0,13.8,0,22.2,0
2005/3/4,1:00:00,22.2,0,51.1,0,13.7,0,22.2,0
2005/3/4,1:15:00,22.3,0,50.6,0,13.7,0,22.1,0
2005/3/4,1:30:00,22,0,51.7,0,13.7,0,22.1,0
2005/3/4,1:45:00,22.1,0,50.9,0,13.7,0,22.1,0
2005/3/4,2:00:00,21.9,0,51.6,0,13.7,0,24.3,0
2005/3/4,2:15:00,22,0,51.6,0,13.7,0,27.1,0
2005/3/4,2:30:00,21.8,0,52.8,0,13.7,0,25.6,0
2005/3/4,2:45:00,21.9,0,52.4,0,13.7,0,24.2,0
2005/3/4,3:00:00,21.9,0,52.4,0,13.7,0,23.4,0
2005/3/4,3:15:00,21.9,0,52.3,0,13.7,0,22.9,0
2005/3/4,3:30:00,21.7,0,53.3,0,13.7,0,22.6,0
2005/3/4,3:45:00,21.9,0,53.1,0,13.7,0,22.5,0
2005/3/4,4:00:00,21.7,0,53.9,0,13.7,0,22.3,0
2005/3/4,4:15:00,21.8,0,53.5,0,13.7,0,22.3,0
2005/3/4,4:30:00,21.7,0,53.6,0,13.7,0,22.2,0
2005/3/4,4:45:00,21.6,0,53.9,0,13.7,0,22.2,0
2005/3/4,5:00:00,21.7,0,53.3,0,13.7,0,22.1,0
2005/3/4,5:15:00,21.6,0,53.5,0,13.7,0,22.1,0
2005/3/4,5:30:00,21.6,0,53.3,0,13.7,0,22.1,0
2005/3/4,5:45:00,21.4,0,54.3,0,13.7,0,22,0
2005/3/4,6:00:00,21.6,0,53.2,0,13.7,0,22,0
2005/3/4,6:15:00,21.4,0,53.7,0,13.7,0,22,0
2005/3/4,6:30:00,21.5,0,53.2,0,13.8,0,21.9,0
2005/3/4,6:45:00,21.3,0,53.9,0,13.8,0,22,0
2005/3/4,7:00:00,21.7,0,52.5,0,14.2,0,22.1,0
2005/3/4,7:15:00,21.8,0,52.1,0,15.2,0,22.2,0
2005/3/4,7:30:00,21.9,0,52.6,0,16.2,0,22.3,0
2005/3/4,7:45:00,21.9,0,52.6,0,16.6,0,22.3,0
2005/3/4,8:00:00,22,0,52.2,0,17,0,22.3,0
2005/3/4,8:15:00,22.1,0,52.1,0,17,0,22.3,0
2005/3/4,8:30:00,22.3,0,52.2,0,16.7,0,22.4,0
2005/3/4,8:45:00,22.3,0,52.1,0,16.5,0,22.4,0
2005/3/4,9:00:00,22.4,0,52,0,16.3,0,22.4,0
2005/3/4,9:15:00,22.3,0,52.4,0,16.1,0,22.4,0
2005/3/4,9:30:00,22.3,0,52.5,0,16,0,22.2,0
2005/3/4,9:45:00,22.4,0,51.9,0,15.9,0,22,0
2005/3/4,10:00:00,22.5,0,51.5,0,15.7,0,21.9,0
2005/3/4,10:15:00,22.6,0,51.2,0,15.6,0,21.8,0
2005/3/4,10:30:00,22.6,0,51,0,15.5,0,21.8,0
2005/3/4,10:45:00,22.7,0,50.5,0,15.4,0,21.7,0
2005/3/4,11:00:00,22.8,0,50.2,0,15.3,0,21.6,0
2005/3/4,11:15:00,22.9,0,49.8,0,15.2,0,21.6,0
2005/3/4,11:30:00,22.8,0,50.5,0,15.2,0,21.6,0
2005/3/4,11:45:00,22.8,0,49.8,0,15.1,0,21.5,0
2005/3/4,12:00:00,22.9,0,49.5,0,15,0,21.5,0
2005/3/4,12:15:00,23,0,49.5,0,14.9,0,21.5,0
2005/3/4,12:30:00,23.1,0,49.4,0,14.9,0,21.6,0
2005/3/4,12:45:00,23.1,0,49.3,0,14.8,0,21.7,0
2005/3/4,13:00:00,23.2,0,49.2,0,14.7,0,21.7,0
2005/3/4,13:15:00,23.3,0,48.8,0,14.7,0,22.1,0
2005/3/4,13:30:00,23.3,0,48.9,0,14.6,0,22.3,0
2005/3/4,13:45:00,23.3,0,49,0,14.6,0,22.6,0
2005/3/4,14:00:00,23.1,0,49.7,0,14.6,0,22.5,0
2005/3/4,14:15:00,23,0,49.8,0,14.5,0,22.3,0
2005/3/4,14:30:00,23,0,49.6,0,14.5,0,22.1,0
2005/3/4,14:45:00,23,0,49.8,0,14.4,0,22,0
2005/3/4,15:00:00,22.9,0,49.8,0,14.4,0,21.9,0
2005/3/4,15:15:00,22.9,0,49.9,0,14.3,0,21.9,0
2005/3/4,15:30:00,22.8,0,49.9,0,14.2,0,21.8,0
2005/3/4,15:45:00,22.8,0,50,0,14.2,0,21.8,0
2005/3/4,16:00:00,22.8,0,50,0,14.1,0,21.7,0
2005/3/4,16:15:00,22.7,0,50,0,14.1,0,21.6,0
2005/3/4,16:30:00,22.6,0,49.9,0,14,0,21.6,0
2005/3/4,16:45:00,22.6,0,50.2,0,13.9,0,21.5,0
2005/3/4,17:00:00,22.6,0,50.5,0,13.8,0,21.5,0
2005/3/4,17:15:00,22.5,0,51,0,13.8,0,21.5,0
2005/3/4,17:30:00,22.5,0,51.2,0,13.7,0,21.6,0
2005/3/4,17:45:00,22.5,0,50.9,0,13.6,0,21.8,0
2005/3/4,18:00:00,22.5,0,51,0,13.6,0,22.1,0
2005/3/4,18:15:00,22.5,0,51.6,0,13.5,0,22,0
2005/3/4,18:30:00,22.6,0,51,0,13.5,0,21.9,0
2005/3/4,18:45:00,22.7,0,50.9,0,13.4,0,21.8,0
2005/3/4,19:00:00,22.7,0,50.8,0,13.4,0,21.7,0
2005/3/4,19:15:00,22.8,0,50.4,0,13.3,0,21.7,0
2005/3/4,19:30:00,22.9,0,50.4,0,13.3,0,21.6,0
2005/3/4,19:45:00,22.8,0,50.7,0,13.3,0,21.6,0
2005/3/4,20:00:00,22.9,0,49.9,0,13.3,0,23.7,0
2005/3/4,20:15:00,23,0,49.9,0,13.3,0,27.1,0
2005/3/4,20:30:00,23.2,0,50.3,0,13.3,0,28.9,0
2005/3/4,20:45:00,23.3,0,51.6,0,13.3,0,29.8,0
2005/3/4,21:00:00,23.4,0,51.8,0,13.2,0,28.1,0
2005/3/4,21:15:00,23.4,0,51.9,0,13.2,0,26.9,0
2005/3/4,21:30:00,23.5,0,51.6,0,13.2,0,25.2,0
2005/3/4,21:45:00,23.6,0,51.2,0,13.2,0,24.2,0
2005/3/4,22:00:00,23.7,0,50.9,0,13.1,0,23.7,0
2005/3/4,22:15:00,23.8,0,50.2,0,13.1,0,23.4,0
2005/3/4,22:30:00,23.8,0,50,0,13.1,0,23.3,0
2005/3/4,22:45:00,23.8,0,49.7,0,13,0,23,0
2005/3/4,23:00:00,23.6,0,50.2,0,13,0,22.9,0
2005/3/4,23:15:00,23.7,0,49.9,0,13,0,22.8,0
2005/3/4,23:30:00,23.7,0,49.6,0,12.9,0,22.8,0
2005/3/4,23:45:00,23.7,0,49.5,0,12.9,0,22.8,0
2005/3/5,0:00:00,23.7,0,49.4,0,12.9,0,22.8,0
2005/3/5,0:15:00,23.7,0,49.4,0,12.9,0,22.8,0
2005/3/5,0:30:00,23.6,0,49.4,0,12.9,0,22.8,0
2005/3/5,0:45:00,23.6,0,49.5,0,13,0,22.8,0
2005/3/5,1:00:00,23.5,0,50,0,13,0,22.9,0
2005/3/5,1:15:00,23.5,0,50.5,0,13,0,22.9,0
2005/3/5,1:30:00,23.4,0,50.6,0,13,0,22.9,0
2005/3/5,1:45:00,23.3,0,50.7,0,13,0,22.8,0
2005/3/5,2:00:00,23,0,51.5,0,13,0,22.6,0
2005/3/5,2:15:00,23.2,0,51,0,13,0,22.7,0
2005/3/5,2:30:00,23.1,0,51,0,13,0,22.8,0
2005/3/5,2:45:00,23.1,0,50.9,0,13,0,22.9,0
2005/3/5,3:00:00,23.1,0,50.9,0,13,0,22.9,0
2005/3/5,3:15:00,23.1,0,50.7,0,13.1,0,22.9,0
2005/3/5,3:30:00,23.1,0,50.4,0,13.1,0,22.8,0
2005/3/5,3:45:00,23.1,0,50.3,0,13.1,0,22.7,0
2005/3/5,4:00:00,23.1,0,50.3,0,13.1,0,22.8,0
2005/3/5,4:15:00,22.7,0,50.9,0,13.1,0,22.9,0
2005/3/5,4:30:00,22.8,0,50.7,0,13.1,0,22.9,0
2005/3/5,4:45:00,22.9,0,50.5,0,13.1,0,22.9,0
2005/3/5,5:00:00,22.8,0,50.3,0,13.1,0,22.8,0
2005/3/5,5:15:00,22.8,0,50.3,0,13.2,0,22.8,0
2005/3/5,5:30:00,22.9,0,50.3,0,13.2,0,22.9,0
2005/3/5,5:45:00,22.9,0,50.3,0,13.2,0,22.8,0
2005/3/5,6:00:00,22.9,0,50.3,0,13.2,0,22.7,0
2005/3/5,6:15:00,22.8,0,50.3,0,13.3,0,22.7,0
2005/3/5,6:30:00,22.8,0,50.2,0,13.3,0,22.7,0
2005/3/5,6:45:00,22.4,0,51.7,0,13.3,0,22.6,0
2005/3/5,7:00:00,22.6,0,50.5,0,13.3,0,22.6,0
2005/3/5,7:15:00,22.6,0,50.4,0,13.3,0,22.4,0
2005/3/5,7:30:00,22.7,0,50.2,0,13.4,0,22.5,0
2005/3/5,7:45:00,22.7,0,50.3,0,13.4,0,22.6,0
2005/3/5,8:00:00,22.7,0,50.2,0,13.4,0,22.7,0
2005/3/5,8:15:00,22.8,0,50.1,0,13.5,0,22.7,0
2005/3/5,8:30:00,22.4,0,50.9,0,13.8,0,22.6,0
2005/3/5,8:45:00,22.5,0,51.1,0,13.9,0,22.5,0
2005/3/5,9:00:00,22.6,0,50.4,0,14.1,0,22.5,0
2005/3/5,9:15:00,22.6,0,50,0,14.1,0,22.4,0
2005/3/5,9:30:00,22.7,0,50.1,0,14.2,0,22.4,0
2005/3/5,9:45:00,22.7,0,50.2,0,14.3,0,22.5,0
2005/3/5,10:00:00,22.7,0,50.2,0,14.3,0,22.6,0
2005/3/5,10:15:00,22.8,0,50.3,0,14.3,0,22.6,0
2005/3/5,10:30:00,22.8,0,50.3,0,14.4,0,22.7,0
2005/3/5,10:45:00,22.8,0,50.3,0,14.4,0,22.8,0
2005/3/5,11:00:00,22.9,0,50.5,0,14.5,0,22.9,0
2005/3/5,11:15:00,22.9,0,50.8,0,14.5,0,23.3,0
2005/3/5,11:30:00,23,0,50.6,0,14.5,0,23.4,0
2005/3/5,11:45:00,22.7,0,51.6,0,14.6,0,23.3,0
2005/3/5,12:00:00,22.7,0,51.7,0,14.6,0,23.6,0
2005/3/5,12:15:00,22.9,0,51.9,0,14.6,0,23.8,0
2005/3/5,12:30:00,23,0,52.2,0,14.7,0,23.8,0
2005/3/5,12:45:00,23,0,52,0,14.7,0,23.8,0
2005/3/5,13:00:00,23.1,0,52.1,0,14.7,0,23.7,0
2005/3/5,13:15:00,23.2,0,52,0,14.8,0,23.7,0
2005/3/5,13:30:00,23.4,0,51.7,0,14.8,0,23.5,0
2005/3/5,13:45:00,23.4,0,51.2,0,14.8,0,23.3,0
2005/3/5,14:00:00,23.5,0,50.7,0,14.8,0,23.1,0
2005/3/5,14:15:00,23.6,0,50.2,0,14.8,0,23,0
2005/3/5,14:30:00,23.7,0,49.8,0,14.8,0,22.9,0
2005/3/5,14:45:00,23.8,0,49.5,0,14.8,0,22.8,0
2005/3/5,15:00:00,23.8,0,49.3,0,14.8,0,22.8,0
2005/3/5,15:15:00,24,0,48.9,0,14.8,0,22.8,0
2005/3/5,15:30:00,23.8,0,50,0,14.7,0,22.7,0
2005/3/5,15:45:00,24,0,48.7,0,14.7,0,22.7,0
2005/3/5,16:00:00,24,0,48.5,0,14.7,0,22.7,0
2005/3/5,16:15:00,23.8,0,49.8,0,14.7,0,22.6,0
2005/3/5,16:30:00,24,0,48.8,0,14.7,0,22.5,0
2005/3/5,16:45:00,23.8,0,49.2,0,14.7,0,22.4,0
2005/3/5,17:00:00,23.7,0,50.1,0,14.7,0,22.4,0
2005/3/5,17:15:00,23.8,0,50.1,0,14.7,0,23,0
2005/3/5,17:30:00,23.7,0,50.8,0,14.7,0,23.1,0
2005/3/5,17:45:00,23.8,0,50.5,0,14.7,0,23,0
2005/3/5,18:00:00,23.8,0,50.3,0,14.7,0,23,0
2005/3/5,18:15:00,23.8,0,49.8,0,14.7,0,22.9,0
2005/3/5,18:30:00,23.8,0,49.9,0,14.7,0,22.8,0
2005/3/5,18:45:00,23.8,0,49.4,0,14.6,0,22.7,0
2005/3/5,19:00:00,23.8,0,49.7,0,14.6,0,22.6,0
2005/3/5,19:15:00,23.9,0,48.5,0,14.5,0,22.6,0
2005/3/5,19:30:00,23.9,0,48.4,0,14.5,0,22.5,0
2005/3/5,19:45:00,23.9,0,48.2,0,14.4,0,22.6,0
2005/3/5,20:00:00,23.9,0,47.9,0,14.4,0,22.6,0
2005/3/5,20:15:00,24,0,48.1,0,14.3,0,25.5,0
2005/3/5,20:30:00,24,0,49.2,0,14.2,0,28.1,0
2005/3/5,20:45:00,24.1,0,49.6,0,14.2,0,26.3,0
2005/3/5,21:00:00,24.1,0,49.4,0,14.1,0,24.9,0
2005/3/5,21:15:00,24.1,0,48.8,0,14,0,24.1,0
2005/3/5,21:30:00,24.1,0,48.5,0,13.9,0,23.6,0
2005/3/5,21:45:00,24.1,0,48.3,0,13.9,0,23.3,0
2005/3/5,22:00:00,24.1,0,48,0,13.8,0,24.2,0
2005/3/5,22:15:00,24.1,0,48.1,0,13.7,0,23.7,0
2005/3/5,22:30:00,24.1,0,47.5,0,13.7,0,23.2,0
2005/3/5,22:45:00,24,0,47.4,0,13.7,0,24.2,0
2005/3/5,23:00:00,23.9,0,47.4,0,13.7,0,23.7,0
2005/3/5,23:15:00,23.9,0,47.5,0,13.7,0,23.1,0
2005/3/5,23:30:00,23.5,0,49.8,0,13.7,0,22.7,0
2005/3/5,23:45:00,23.7,0,48,0,13.7,0,22.4,0
2005/3/6,0:00:00,23.6,0,48.2,0,13.7,0,24,0
2005/3/6,0:15:00,23.6,0,48.5,0,13.7,0,26.9,0
2005/3/6,0:30:00,23.5,0,49.2,0,13.7,0,26.7,0
2005/3/6,0:45:00,23.5,0,49.6,0,13.6,0,24.9,0
2005/3/6,1:00:00,23.5,0,49.4,0,13.6,0,23.9,0
2005/3/6,1:15:00,23.2,0,49.9,0,13.6,0,23.3,0
2005/3/6,1:30:00,23.3,0,49.4,0,13.6,0,22.9,0
2005/3/6,1:45:00,23.2,0,49.1,0,13.5,0,22.6,0
2005/3/6,2:00:00,23.2,0,48.7,0,13.5,0,22.4,0
2005/3/6,2:15:00,23.2,0,48.5,0,13.5,0,22.3,0
2005/3/6,2:30:00,23,0,48.9,0,13.4,0,22.1,0
2005/3/6,2:45:00,23,0,48.7,0,13.4,0,22,0
2005/3/6,3:00:00,23,0,48.4,0,13.4,0,22,0
2005/3/6,3:15:00,22.9,0,48.5,0,13.4,0,21.9,0
2005/3/6,3:30:00,22.9,0,48.4,0,13.3,0,21.9,0
2005/3/6,3:45:00,22.9,0,48.3,0,13.3,0,21.9,0
2005/3/6,4:00:00,22.9,0,48.1,0,13.3,0,21.8,0
2005/3/6,4:15:00,22.5,0,50,0,13.3,0,21.8,0
2005/3/6,4:30:00,22.7,0,48.4,0,13.3,0,21.7,0
2005/3/6,4:45:00,22.7,0,48.2,0,13.2,0,21.7,0
2005/3/6,5:00:00,22.7,0,48.1,0,13.2,0,21.7,0
2005/3/6,5:15:00,22.7,0,48,0,13.2,0,21.7,0
2005/3/6,5:30:00,22.7,0,48,0,13.2,0,21.6,0
2005/3/6,5:45:00,22.7,0,47.8,0,13.2,0,21.6,0
2005/3/6,6:00:00,22.7,0,47.8,0,13.2,0,21.6,0
2005/3/6,6:15:00,22.3,0,48.6,0,13.2,0,21.5,0
2005/3/6,6:30:00,22.4,0,48.2,0,13.2,0,21.4,0
2005/3/6,6:45:00,22.4,0,47.9,0,13.2,0,21.4,0
2005/3/6,7:00:00,22.4,0,47.9,0,13.1,0,21.4,0
2005/3/6,7:15:00,22.4,0,47.9,0,13.2,0,21.4,0
2005/3/6,7:30:00,22.4,0,47.9,0,13.2,0,21.5,0
2005/3/6,7:45:00,22.5,0,47.9,0,13.3,0,21.6,0
2005/3/6,8:00:00,22.5,0,47.9,0,14,0,21.7,0
2005/3/6,8:15:00,22.5,0,47.2,0,14.6,0,21.6,0
2005/3/6,8:30:00,22.5,0,47,0,14.8,0,21.5,0
2005/3/6,8:45:00,22.6,0,46.8,0,15,0,21.5,0
2005/3/6,9:00:00,22.7,0,46.5,0,15.3,0,21.6,0
2005/3/6,9:15:00,22.6,0,46.7,0,15.5,0,21.6,0
2005/3/6,9:30:00,22.7,0,46.6,0,15.8,0,21.7,0
2005/3/6,9:45:00,22.8,0,46.1,0,16.7,0,22.2,0
2005/3/6,10:00:00,22.8,0,47,0,16.9,0,22.5,0
2005/3/6,10:15:00,23.1,0,46.4,0,16.9,0,22.4,0